Regional Weather Roundup
Issued by NWS Mobile, AL

Home | Current Version | Previous Version | Text Only | Print | Product List | Glossary On
Versions: 1 2 3 4 5 6 7 8 9 10 11 12 13 14 15 16 17 18 19 20 21 22 23 24 25 26 27 28 29 30 31 32 33 34 35 36 37 38 39 40 41 42 43 44 45 46 47 48 49 50
000
ASUS44 KMOB 230413
RWRMOB
REGIONAL WEATHER ROUNDUP
NATIONAL WEATHER SERVICE MOBILE AL
1100 PM CDT TUE AUG 22 2017

NOTE: "FAIR" INDICATES FEW OR NO CLOUDS BELOW 12,000 FEET WITH NO
      SIGNIFICANT WEATHER AND/OR OBSTRUCTIONS TO VISIBILITY.

  * THESE STATIONS ARE PART OF THE UNIVERSITY OF SOUTH ALABAMA
    MESONET AND ARE NOT UNDER NWS OR FAA QUALITY CONTROL.

ALZ061>064-230500-
COASTAL ALABAMA

CITY           SKY/WX    TMP DP  RH WIND       PRES   REMARKS
MOBILE REG APT PTCLDY    77  74  90 CALM      30.01F
BROOKLEY FIELD CLEAR     77  77 100 SW3       30.01F
USA CAMPUS*      N/A     73  72  94 CALM      30.01S
DOG RIVER*     NOT AVBL


CITY           SKY/WX    TMP DP  RH WIND       PRES   REMARKS
GULF SHORES    CLEAR     75  75 100 CALM      30.00S FOG

$$

ALZ051>060-230500-
INTERIOR SOUTHWEST AND SOUTH CENTRAL ALABAMA

CITY           SKY/WX    TMP DP  RH WIND       PRES   REMARKS
GREENVILLE     MOCLDY    79  73  82 CALM      30.02R
EVERGREEN      MOCLDY    78  75  90 CALM      30.02R
ATMORE*        NOT AVBL
ANDALUSIA/OPP  PTCLDY    80  75  84 CALM      30.01S
ANDALUSIA*       N/A     77  75  94 CALM      30.01F
FLORALA APT      N/A    N/A N/A N/A MISG      30.03S
FLORALA*         N/A     75  75 100 CALM      30.71S

$$

FLZ001>006-230500-
WESTERN FLORIDA PANHANDLE

CITY           SKY/WX    TMP DP  RH WIND       PRES   REMARKS
PENSACOLA      PTCLDY    80  76  87 CALM      30.00S
NAS PENSACOLA  CLEAR     76  74  93 CALM      30.00R
MILTON         CLEAR     75  75 100 CALM      30.01S
WHTNG S FIELD  PTCLDY    79  76  90 CALM      30.01S


CITY           SKY/WX    TMP DP  RH WIND       PRES   REMARKS
JAY*             N/A     75  75 100 CALM      30.01S
DUKE FIELD     MOCLDY    77  75  95 CALM      30.01R
CRESTVIEW      PTCLDY    76  74  93 CALM      30.02S
VALPARAISO     PTCLDY    80  75  85 NW3       29.99S
DESTIN         MOCLDY    86  75  69 CALM      29.99S HX  95

$$

MSZ076-079-230500-
INTERIOR SOUTHEAST MISSISSIPPI

CITY           SKY/WX    TMP DP  RH WIND       PRES   REMARKS
LEAKESVILLE*     N/A     77  75  94 CALM      30.02R
AGRICOLA*        N/A     75  75 100 CALM      30.00S

$$

MARINE OBSERVATIONS

STATION/POSITION TIME  TEMP    WIND        PRES    WAVE
                       AIR SEA DIR/SP/G            HT/PER
                 (UTC) (F)     (DEG/KT/KT) (MB)    (FT/S)
PASCAGOULA       0336   80      CALM  /  1 1015.5F
PETIT BOIS ISLND 0336   83     200/  3/  5 1016.3F
GRAND BAY        0245   83     190/  4     1017.0S
KATRINA CUT      0330   83     190/  5     1015.6S
CEDAR POINT      0330   83     210/  5     1015.9S
E DAUPHIN ISLAND 0300   83     190/  4/  6 1015.6S
MIDDLE BAY LIGHT 0330   83     190/  4     1015.9R
USCG MOBILE BAY  0336   80 86  270/  3/  3 1016.4F
STATE DOCKS      0336   81 86              1015.7F
MEAHER PARK      0330   80        CALM     1016.3R
WEEKS BAY        0245   78                   N/A
FORT MORGAN      0336   83     210/  4/  5   N/A
12 S ORANGE BCH  0350   84 87  200/  6/  8 1015.3F   2/ 6
PENSACOLA BAY    0336   81 87              1016.1S
64 S DAUPHIN ISL 0350   84 87  130/  6/  8 1015.8F   2/ 7
67 S FORT MORGAN 0330   83     120/  4     1015.9F

$$

SELECTED LOCATIONS ACROSS THE REGION

CITY           SKY/WX    TMP DP  RH WIND       PRES   REMARKS
NEW ORLEANS    PTCLDY    79  78  97 CALM      29.99S
GULFPORT       PTCLDY    77  75  93 CALM      29.98F
PASCAGOULA AP  CLEAR     75  73  93 CALM      29.99F FOG
PASCAGOULA*      N/A    N/A N/A N/A CALM        N/A
HATTIESBURG    CLOUDY    79  77  94 CALM      30.01R
LAUREL         CLEAR     77  76  96 CALM      30.02R
MERIDIAN       PTCLDY    79  77  94 CALM      30.02R
JACKSON        CLEAR     79  75  87 SW5       30.02R
MONTGOMERY     CLEAR     81  73  76 SW5       30.01R
TROY           CLEAR     77  76  96 CALM      30.03R
ASHFORD*         N/A     77  75  94 CALM      30.01F
DOTHAN         CLEAR     80  76  87 W6        30.05R
PANAMA CITY    PTCLDY    78  75  90 W3        29.99F

$$




USA.gov is the U.S. government's official web portal to all federal, state and local government web resources and services.